STARLINK-11548, 62829

Orbit data source: Space-Track

STARLINK-11548, 62829 is a payload satellite owned by SpaceX/Seattle (US) in LEO that was launched on Mon, 27 Jan 2025 UTC via an FALCON 9 launch vehicle from the Air Force Eastern Test Range (AFETR). Payload-class satellites include a variety of spacecraft equipped with specific instruments for various scientific and technological missions. These include communications satellites like Starlink; space stations such as the ISS; scientific satellites like the Hubble; Earth observation satellites from companies like Planet Labs, Umbra, and HawkEye 360; GPS; miniature CubeSats for education and research; and military/defense satellites.

Loading next visibility...
Identifier
62829, 2025-019A
Orbit
LEO
Country
Flag of USUS
Related business
Manufacturer
SpaceX/Seattle
Mission
Operational Commercial Communications
Bus & Motor
STARLINK V2MD, Unknown motor
Mass
960 kg wet, ~910 kg dry
Launch date (UTC)
2025-01-27 (1 year ago)
Launch vehicle
FALCON 9
Launch site
Air Force Eastern Test Range (AFETR)
Object type
Payload
Rocket body
Debris
Shape & HBR
Box + 2 Pan, 18.1 m
Radar Cross Section
36.964 m², Large (>1 m²)

Expand to show TLE details & history
Last TLE update: 14 hours ago

TLE from 14 hours ago
0 STARLINK-11548
1 62829U 25019A   26072.62958474  .00214480  00000-0  16326-2 0  9995
2 62829  42.9987 281.9445 0004450 292.5027  67.5369 15.70826579 64502
Epoch: 2026-03-13T15:06Z
TLE epoch observation values (Epoch: 2026-03-13T15:06:36.121Z)
Latitude
-0.00004°
Longitude
-115.96842°
Altitude
355.161 km
Speed
7.699 km/s
True Right ascension
18h 47m 46s
True Declination
0° 00' 00"
Sunlit
Object was in daylight at epoch
Visualization orbit readout
Latitude
Unknown
Longitude
Unknown
Altitude
Unknown
Speed
Unknown
Apparent Right ascension
Unknown
Apparent Declination
Unknown
Sunlit
N/A
Visualization observer readout
Local Sidereal Time
09:51:17
Azimuth
Unknown
Elevation
Unknown
Doppler factor
Unknown
Orbital elements
Apogee altitude
361.513 km
Perigee altitude
355.517 km
Semi-major axis
6,736.652 km
Eccentricity
0.00045
Inclination
42.9987°
RAAN
281.9445°
Arg. of periapsis
292.5027°
True anomaly
67.58403°
Mean anomaly
67.5369°
Eccentric anomaly
67.56047°
Mean motion
3.92534 °/min
Orbital period
91.71 mins
BSTAR
0.0016326
Loading maneuver chart data...
Computing Atmospheric mass density...
Loading historical data...
Loading historical data...
Loading historical data...
Loading historical data...
Loading historical data...
Loading historical data...
Loading historical data...

Documentation

Showing up to 5 results
|